Franklin, NC

10:06 PM EDT on May 26, 2018 (GMT -0400)
Franklin

Weather History for K1A5 - June, 2013

Change the Weather History Date:

Thursday, June 13, 2013

  Actual Average (KTOC) Record (KTOC)
Temperature  
Mean Temperature 72 °F -  
Max Temperature 85 °F 85 °F 94 °F (2016)
Min Temperature 60 °F 61 °F 64 °F (2014)
Cooling Degree Days 8    
Growing Degree Days 22 (Base 50)    
Moisture  
Dew Point 63 °F    
Average Humidity 81    
Maximum Humidity 97    
Minimum Humidity 46    
Precipitation  
Precipitation 0.01 in - - ()
Sea Level Pressure  
Sea Level Pressure 29.94 in    
Wind  
Wind Speed 3 mph (West)    
Max Wind Speed 20 mph    
Max Gust Speed 29 mph    
Visibility 7 miles    
Events Fog , Rain    
Averages and records for this station are not official NWS values.
T = Trace of Precipitation, MM = Missing Value Source: NWS Daily Summary

Daily Weather History Graph

Daily Weather History Graph

Search for Another Location

Airport or City:

Astronomy

Jun. 13, 2013 Rise Set
Actual Time 6:18 AM EDT 8:49 PM EDT
Civil Twilight 5:48 AM EDT 9:19 PM EDT
Nautical Twilight 5:11 AM EDT 9:55 PM EDT
Astronomical Twilight 4:31 AM EDT 10:36 PM EDT
Moon 10:45 AM EDT (6/13) No Moon Set
Length of Visible Light 15h 30m
Length of Day
14h 30m
Waxing Crescent, 21% of the Moon is Illuminated
Jun 13
Waxing Crescent
Jun 16
First Quarter
Jun 23
Full
Jun 30
Last Quarter
Jul 8
New

Hourly Weather History & Observations

Time (EDT) Temp. Heat Index Dew Point Humidity Pressure Visibility Wind Dir Wind Speed Gust Speed Precip Events Conditions
12:15 AM 65.7 °F - 64.8 °F 97% 30.05 in 7.0 mi Calm Calm - N/A   Clear
12:35 AM 65.1 °F - 64.2 °F 97% 30.04 in 7.0 mi Calm Calm - N/A   Clear
12:55 AM 65.1 °F - 64.2 °F 97% 30.04 in 7.0 mi Calm Calm - N/A   Clear
1:15 AM 64.2 °F - 63.3 °F 97% 30.04 in 7.0 mi Calm Calm - N/A   Clear
1:35 AM 64.4 °F - 63.5 °F 97% 30.03 in 7.0 mi Calm Calm - N/A   Clear
1:55 AM 63.7 °F - 62.8 °F 97% 30.03 in 7.0 mi Calm Calm - N/A   Clear
2:15 AM 63.5 °F - 62.6 °F 97% 30.04 in 5.0 mi Calm Calm - N/A   Clear
2:35 AM 62.8 °F - 61.9 °F 97% 30.04 in 5.0 mi Calm Calm - N/A   Clear
2:55 AM 63.0 °F - 61.9 °F 96% 30.04 in 5.0 mi Calm Calm - N/A   Scattered Clouds
3:15 AM 62.1 °F - 61.0 °F 96% 30.04 in 7.0 mi Calm Calm - N/A   Scattered Clouds
3:35 AM 61.9 °F - 60.8 °F 96% 30.04 in 4.0 mi Calm Calm - N/A   Scattered Clouds
3:55 AM 61.7 °F - 60.6 °F 96% 30.03 in 2.5 mi Calm Calm - N/A   Mostly Cloudy
4:15 AM 61.7 °F - 60.8 °F 97% 30.03 in 0.8 mi Calm Calm - N/A   Overcast
4:35 AM 62.2 °F - 61.2 °F 96% 30.02 in 0.2 mi Calm Calm - N/A Fog Fog
4:55 AM 62.1 °F - 60.8 °F 96% 30.02 in 0.2 mi Calm Calm - N/A Fog Fog
5:15 AM 61.9 °F - 60.8 °F 96% 30.02 in 0.2 mi Calm Calm - N/A Fog Fog
5:35 AM 61.9 °F - 60.8 °F 96% 30.01 in 0.2 mi Calm Calm - N/A Fog Fog
5:55 AM 61.3 °F - 60.1 °F 96% 30.01 in 0.2 mi Calm Calm - N/A Fog Fog
6:15 AM 61.3 °F - 59.9 °F 95% 30.00 in 0.2 mi Calm Calm - N/A Fog Fog
6:35 AM 61.0 °F - 59.5 °F 95% 30.00 in 0.2 mi Calm Calm - N/A Fog Fog
6:55 AM 60.8 °F - 59.4 °F 95% 30.00 in 0.2 mi Calm Calm - N/A Fog Fog
7:15 AM 60.8 °F - 59.4 °F 95% 30.00 in 0.2 mi Calm Calm - N/A Fog Fog
7:35 AM 61.0 °F - 59.7 °F 96% 30.00 in 0.2 mi Calm Calm - N/A Fog Fog
7:55 AM 61.9 °F - 60.4 °F 95% 29.99 in 0.2 mi Calm Calm - N/A Fog Fog
8:15 AM 62.8 °F - 61.3 °F 95% 29.99 in 1.5 mi Calm Calm - N/A   Overcast
8:35 AM 64.2 °F - 62.8 °F 95% 29.99 in 7.0 mi Calm Calm - N/A   Scattered Clouds
8:55 AM 65.7 °F - 64.0 °F 94% 29.98 in 10.0 mi Calm Calm - N/A   Clear
9:15 AM 67.1 °F - 65.7 °F 95% 29.98 in 10.0 mi Calm Calm - N/A   Clear
9:35 AM 70.0 °F - 68.4 °F 95% 29.97 in 10.0 mi Calm Calm - N/A   Clear
9:55 AM 76.3 °F - 61.3 °F 60% 29.95 in 10.0 mi West 10.4 mph - N/A   Clear
10:15 AM 77.9 °F - 61.7 °F 57% 29.95 in 10.0 mi West 11.5 mph - N/A   Clear
10:35 AM 78.8 °F - 61.2 °F 55% 29.94 in 10.0 mi WSW 6.9 mph - N/A   Clear
10:55 AM 79.9 °F - 61.5 °F 53% 29.93 in 10.0 mi West 9.2 mph - N/A   Clear
11:15 AM 80.4 °F 81.4 °F 61.2 °F 52% 29.93 in 10.0 mi West 9.2 mph 17.3 mph N/A   Clear
11:35 AM 81.1 °F 81.9 °F 60.8 °F 50% 29.93 in 10.0 mi WSW 11.5 mph 17.3 mph N/A   Clear
11:55 AM 81.5 °F 82.5 °F 62.2 °F 52% 29.92 in 10.0 mi WSW 8.1 mph - N/A   Clear
12:15 PM 82.2 °F 82.9 °F 61.5 °F 49% 29.91 in 10.0 mi WSW 15.0 mph 19.6 mph N/A   Clear
12:35 PM 82.9 °F 83.7 °F 61.9 °F 49% 29.90 in 10.0 mi West 13.8 mph 25.3 mph N/A   Clear
12:55 PM 83.1 °F 83.5 °F 60.8 °F 47% 29.89 in 10.0 mi West 13.8 mph 28.8 mph N/A   Clear
1:15 PM 84.2 °F 84.6 °F 61.3 °F 46% 29.89 in 10.0 mi WSW 19.6 mph 28.8 mph N/A   Clear
1:35 PM 83.5 °F 84.3 °F 62.2 °F 49% 29.88 in 10.0 mi WSW 13.8 mph 19.6 mph N/A   Mostly Cloudy
1:55 PM 83.5 °F 84.5 °F 63.0 °F 50% 29.87 in 10.0 mi West 10.4 mph 23.0 mph N/A   Mostly Cloudy
2:15 PM 84.0 °F 85.4 °F 64.2 °F 51% 29.87 in 10.0 mi West 9.2 mph - N/A   Mostly Cloudy
2:35 PM 85.6 °F 87.1 °F 64.6 °F 49% 29.86 in 10.0 mi West 11.5 mph 23.0 mph N/A   Scattered Clouds
2:55 PM 81.9 °F 83.4 °F 64.4 °F 55% 29.85 in 10.0 mi West 10.4 mph 21.9 mph N/A   Scattered Clouds
3:15 PM 81.1 °F 82.7 °F 64.2 °F 56% 29.85 in 10.0 mi West 6.9 mph - N/A   Mostly Cloudy
3:35 PM 80.4 °F 82.1 °F 64.4 °F 58% 29.85 in 10.0 mi West 10.4 mph - N/A   Mostly Cloudy
3:55 PM 81.1 °F 82.8 °F 64.4 °F 57% 29.82 in 10.0 mi WSW 5.8 mph - N/A   Scattered Clouds
4:15 PM 83.1 °F 85.0 °F 65.3 °F 55% 29.82 in 10.0 mi WSW 12.7 mph 17.3 mph N/A   Mostly Cloudy
4:35 PM 81.5 °F 83.3 °F 64.9 °F 57% 29.81 in 10.0 mi SW 3.5 mph - N/A   Overcast
4:55 PM 79.9 °F - 63.9 °F 58% 29.83 in 10.0 mi West 13.8 mph 20.7 mph N/A   Mostly Cloudy
5:15 PM 77.9 °F - 66.0 °F 67% 29.89 in 7.0 mi NNW 17.3 mph 24.2 mph N/A Rain Heavy Rain
6:15 PM - - - N/A% 29.89 in - Calm Calm - N/A   Unknown
6:35 PM 69.3 °F - 65.5 °F 88% 29.87 in 10.0 mi Calm Calm - N/A   Overcast
6:55 PM 68.9 °F - 67.1 °F 94% 29.87 in 10.0 mi Calm Calm - N/A   Overcast
7:15 PM 68.9 °F - 67.5 °F 95% 29.87 in 10.0 mi Calm Calm - N/A   Mostly Cloudy
7:35 PM 69.8 °F - 66.2 °F 88% 29.87 in 10.0 mi Calm Calm - N/A   Mostly Cloudy
7:55 PM 69.6 °F - 67.1 °F 92% 29.86 in 10.0 mi Calm Calm - N/A   Mostly Cloudy
8:15 PM 69.3 °F - 67.6 °F 95% 29.87 in 10.0 mi Calm Calm - 0.01 in   Scattered Clouds
8:35 PM 68.9 °F - 66.7 °F 93% 29.87 in 10.0 mi Calm Calm - 0.01 in   Clear
8:55 PM 68.0 °F - 67.1 °F 97% 29.86 in 10.0 mi Calm Calm - 0.01 in   Clear
9:15 PM 67.6 °F - 65.8 °F 94% 29.87 in 10.0 mi Calm Calm - N/A   Scattered Clouds
9:35 PM 66.7 °F - 65.8 °F 97% 29.88 in 7.0 mi Calm Calm - N/A   Scattered Clouds
9:55 PM 66.2 °F - 65.3 °F 97% 29.89 in 5.0 mi Calm Calm - N/A   Clear
10:15 PM 65.3 °F - 64.4 °F 97% 29.89 in 7.0 mi Calm Calm - N/A   Clear
10:35 PM 68.0 °F - 62.4 °F 82% 29.89 in 10.0 mi NW 5.8 mph - N/A   Clear
10:55 PM 68.9 °F - 61.3 °F 77% 29.90 in 10.0 mi NW 8.1 mph - N/A   Clear
11:15 PM 68.0 °F - 60.8 °F 78% 29.90 in 10.0 mi NW 4.6 mph - N/A   Clear
11:35 PM 64.4 °F - 62.8 °F 94% 29.91 in 10.0 mi Calm Calm - N/A   Clear
11:55 PM 63.7 °F - 62.8 °F 97% 29.92 in 10.0 mi Calm Calm - N/A   Clear